[[{"header":{"parameterUnit":"m.s-1","parameterCategory":1,"la1":30.2991,"la2":30.254,"lo1":-89.0895,"lo2":-89.0444,"dy":0.0017,"dx":0.0017,"nx":28,"ny":28,"refTime":"2023-08-21T09:00:00:Z","depth":0,"parameterNumber":2,"parameterNumberName":"U-component_of_WINDS"},"data":[0,0,0,0,0,0,0,0,0,0,0,0,0,0,0,0,0,0,0,0,0,0,0,0,0,0,0,0,0,0,0,0,0,0,0,0,0,0,0,0,0,0,0,0,0,0,0,0,0,0,0,0,0,0,0,0,0,0,-3.8282,-3.8282,0,-3.827,-3.827,-3.827,-3.8158,-3.8156,-3.8153,-3.815,-3.8138,-3.8141,-3.8143,0,0,0,0,0,0,0,0,0,0,0,0,0,-3.8209,-3.8211,-3.8282,-3.8282,-3.8282,-3.827,-3.827,-3.827,-3.8159,-3.8156,-3.8152,-3.8149,-3.8138,-3.814,-3.8143,0,0,0,0,0,0,0,0,0,0,0,0,0,-3.8223,-3.8212,-3.8282,-3.8225,-3.822,-3.827,-3.827,-3.827,-3.816,-3.8155,-3.8151,-3.8147,-3.8137,-3.814,-3.8143,-3.8248,0,0,-3.8154,-3.8155,0,0,0,0,0,0,0,0,-3.8223,-3.8226,-3.8234,-3.8229,-3.8223,-3.8211,-3.824,-3.8262,-3.8161,-3.8183,-3.815,-3.8145,-3.8166,-3.8167,-3.8174,-3.8247,-3.8247,-3.8154,-3.8156,-3.8158,-3.8159,0,0,0,0,0,0,0,-3.8222,-3.8226,-3.8277,-3.8234,-3.8228,-3.82,-3.8198,-3.8244,-3.8198,-3.818,-3.8172,-3.8172,-3.8162,-3.8171,-3.8173,-3.8247,-3.8154,-3.8157,-3.8159,-3.816,-3.8404,-3.8409,0,0,0,0,0,0,-3.8229,-3.8226,-3.8278,-3.8277,-3.8213,-3.8205,-3.8202,-3.822,-3.8197,-3.819,-3.8176,-3.8167,-3.8167,-3.8169,-3.8172,-3.8291,-3.8158,-3.8161,-3.8163,-3.84,-3.8405,-3.841,0,0,0,0,0,0,-3.8228,-3.8235,-3.8278,-3.8249,-3.8253,-3.8211,-3.8231,-3.8221,-3.8229,-3.8194,-3.8185,-3.8193,-3.8164,-3.8167,-3.8229,-3.8289,-3.8162,-3.8165,-3.8395,-3.8402,-3.8408,-3.8532,0,0,0,0,0,0,-3.8226,-3.8235,-3.8274,-3.8251,-3.8255,-3.8336,-3.8235,-3.8224,-3.8236,-3.8224,-3.8207,-3.82,-3.8161,-3.8225,-3.8233,-3.8292,-3.8168,-3.8389,-3.8398,-3.8406,-3.8522,-3.8542,-3.8559,0,0,0,0,0,-3.8224,-3.831,-3.8276,-3.8283,-3.8303,-3.834,-3.8342,-3.8295,-3.8241,-3.828,-3.8257,-3.8201,-3.8282,-3.8232,-3.824,-3.8301,-3.8385,-3.8395,-3.8405,-3.8514,-3.8538,-3.8559,0,0,0,0,0,0,-3.834,-3.8305,-3.8268,-3.8349,-3.8348,-3.8321,-3.8368,-3.8322,-3.8336,-3.8325,-3.8266,-3.8263,-3.8334,-3.8324,-3.8269,-3.8401,-3.8324,-3.8336,-3.8404,-3.8427,-3.8445,-3.8445,-3.8171,0,0,0,0,0,-3.8376,-3.8409,-3.8376,-3.8451,-3.8452,-3.8411,-3.8426,-3.8389,-3.8386,-3.8385,-3.8367,-3.8366,-3.8391,-3.8409,-3.843,-3.8521,-3.8515,-3.8567,-3.8586,-3.8601,-3.8611,-3.8658,-3.868,-3.8443,-3.8443,-3.8443,0,0,-3.8448,-3.8433,-3.8458,-3.8474,-3.8469,-3.8504,-3.8411,-3.8453,-3.8478,-3.8391,-3.8448,-3.8436,-3.8431,-3.8508,-3.8541,-3.8502,-3.8676,-3.8613,-3.8626,-3.8628,-3.867,-3.8693,-3.8713,-3.845,-3.8448,-3.8447,0,0,-3.8598,-3.8591,-3.8651,-3.8649,-3.8643,-3.8615,-3.863,-3.861,-3.8597,-3.8654,-3.8589,-3.862,-3.8664,-3.8663,-3.8669,-3.882,-3.8769,-3.8829,-3.8924,-3.897,-3.8989,-3.9005,-3.9057,-3.9077,-3.884,-3.884,-3.884,0,-3.8689,-3.8739,-3.8689,-3.8734,-3.8743,-3.8667,-3.8727,-3.8727,-3.8729,-3.8736,-3.8693,-3.8747,-3.8739,-3.8814,-3.8851,-3.8859,-3.8873,-3.8829,-3.899,-3.9006,-3.902,-3.9069,-3.909,-3.8847,-3.8847,-3.8846,-3.8845,0,-3.8851,-3.8887,-3.8937,-3.894,-3.8955,-3.9008,-3.8965,-3.8986,-3.895,-3.8926,-3.8985,-3.8973,-3.899,-3.9006,-3.897,-3.9076,-3.9052,-3.9,-3.8921,-3.9051,-3.9096,-3.9115,-3.8858,-3.8855,-3.8853,-3.8851,0,0,-3.9072,-3.9047,-3.9066,-3.9066,-3.9054,-3.9081,-3.9131,-3.9148,-3.9166,-3.9171,-3.9211,-3.9251,-3.9203,-3.921,-3.9174,-3.9215,-3.9334,-3.9158,-3.9157,-3.9189,-3.9448,-3.9486,-3.9509,-3.9301,-3.9304,-3.9307,-3.9448,0,-3.9215,-3.9298,-3.9254,-3.9343,-3.9375,-3.9304,-3.9347,-3.9345,-3.9325,-3.935,-3.9328,-3.9357,-3.9293,-3.9296,-3.9333,-3.9311,-3.9385,-3.9301,-3.9336,-3.9338,-3.9337,-3.9532,-3.9572,-3.9706,-3.9466,-3.9469,-3.9471,0,-3.9392,-3.9403,-3.9496,-3.9477,-3.9489,-3.9529,-3.9541,-3.9566,-3.9562,-3.9544,-3.9553,-3.9507,-3.9555,-3.9479,-3.9544,-3.9488,-3.95,-3.9492,-3.9496,-3.9495,-3.9411,-3.9536,-3.9748,-3.9767,-3.9499,-3.9496,-3.9494,0,-3.9542,-3.9581,-3.964,-3.9643,-3.9624,-3.9653,-3.9647,-3.9639,-3.9652,-3.9662,-3.967,-3.9687,-3.9695,-3.9709,-3.9669,-3.9618,-3.9739,-3.966,-3.9726,-3.9727,-3.9752,-3.9751,-3.9967,-3.9764,-3.9764,-3.9764,-3.9763,0,-3.9705,-3.9763,-3.9707,-3.9744,-3.9807,-3.9757,-3.9822,-3.9808,-3.9801,-3.9834,-3.9774,-3.9806,-3.9753,-3.9779,-3.9749,-3.9807,-3.9812,-3.9799,-3.9789,-3.9803,-3.9804,-3.9808,-3.9797,-3.9769,-3.9768,-3.9767,-3.9766,0,-3.9882,-3.9846,-3.9907,-3.9884,-3.988,-3.9928,-3.9908,-3.9941,-3.9918,-3.996,-3.9967,-3.993,-3.9959,-3.9921,-3.9946,-3.9926,-4.0004,-3.9982,-4.0005,-3.9998,-4.0065,-4.0058,-4.029,-4.0317,-4.0099,-4.0101,-4.0102,0,-3.9987,-4.003,-4.0012,-4.003,-4.0027,-4.0056,-4.0068,-4.0021,-4.0037,-4.0036,-4.0069,-4.0093,-4.0109,-4.0158,-4.0133,-4.0152,-4.0129,-4.0209,-4.0131,-4.0143,-4.0128,-4.0125,-4.0129,-4.0224,-4.0227,-4.0229,-4.0231,0,-4.0177,-4.0157,-4.0178,-4.0193,-4.021,-4.0219,-4.0224,-4.0242,-4.0193,-4.0214,-4.0242,-4.0254,-4.028,-4.0304,-4.0316,-4.0309,-4.0262,-4.0256,-4.0271,-4.0284,-4.0295,-4.0289,-4.0046,-4.025,-4.0248,-4.0247,-4.0246,-4.0245,-4.032,-4.0355,-4.0347,-4.0372,-4.0371,-4.0378,-4.0407,-4.0388,-4.041,-4.0427,-4.0398,-4.0434,-4.0429,-4.0441,-4.044,-4.0467,-4.0432,-4.0456,-4.0461,-4.0467,-4.0477,-4.0293,-4.0469,-4.0469,-4.0468,-4.0468,-4.0467,0,-4.0505,-4.0497,-4.0521,-4.0529,-4.0549,-4.0504,-4.0507,-4.0526,-4.0558,-4.0558,-4.0575,-4.0608,-4.0631,-4.0609,-4.0628,-4.0654,-4.0632,-4.066,-4.0657,-4.0656,-4.0507,-4.0491,-4.0677,-4.0677,-4.0677,-4.0677,-4.0677,-4.0677,-4.0604,-4.066,-4.064,-4.0696,-4.0687,-4.0721,-4.0727,-4.0732,-4.0732,-4.077,-4.0789,-4.0775,-4.0766,-4.0784,-4.0803,-4.0796,-4.0805,-4.084,-4.0826,-4.0687,-4.0666,-4.0646,-4.0631,-4.0843,-4.0843,-4.0971,-4.0972,-4.0973]},{"header":{"parameterUnit":"m.s-1","parameterCategory":1,"la1":30.2991,"la2":30.254,"lo1":-89.0895,"lo2":-89.0444,"dy":0.0017,"dx":0.0017,"nx":28,"ny":28,"refTime":"2023-08-21T09:00:00:Z","depth":0,"parameterNumber":3,"parameterNumberName":"V-component_of_WINDS"},"data":[0,0,0,0,0,0,0,0,0,0,0,0,0,0,0,0,0,0,0,0,0,0,0,0,0,0,0,0,0,0,0,0,0,0,0,0,0,0,0,0,0,0,0,0,0,0,0,0,0,0,0,0,0,0,0,0,0,0,2.0792,2.0793,0,2.0819,2.0819,2.082,2.0812,2.0811,2.081,2.081,2.0835,2.0836,2.0837,0,0,0,0,0,0,0,0,0,0,0,0,0,2.0733,2.0734,2.0792,2.0793,2.0793,2.0819,2.0819,2.082,2.0812,2.0811,2.081,2.081,2.0834,2.0836,2.0837,0,0,0,0,0,0,0,0,0,0,0,0,0,2.0759,2.0734,2.0792,2.0792,2.0792,2.0819,2.0819,2.082,2.0812,2.0811,2.081,2.0809,2.0834,2.0836,2.0837,2.0865,0,0,2.0843,2.0843,0,0,0,0,0,0,0,0,2.0757,2.0761,2.0792,2.0792,2.0793,2.0811,2.0807,2.0835,2.0812,2.0804,2.081,2.0809,2.0827,2.083,2.0836,2.0866,2.0867,2.0843,2.0844,2.0845,2.0845,0,0,0,0,0,0,0,2.0756,2.076,2.0803,2.0792,2.0793,2.079,2.0793,2.0813,2.082,2.0805,2.0804,2.0808,2.0827,2.0835,2.0837,2.0867,2.0843,2.0844,2.0845,2.0846,2.0921,2.0922,0,0,0,0,0,0,2.0754,2.0758,2.0802,2.0804,2.0773,2.0792,2.0795,2.0806,2.082,2.0821,2.0809,2.0807,2.0832,2.0835,2.0838,2.0871,2.0845,2.0846,2.0847,2.092,2.0921,2.0922,0,0,0,0,0,0,2.0753,2.0758,2.0801,2.0781,2.0786,2.0794,2.0806,2.0807,2.0814,2.0823,2.0824,2.0815,2.0831,2.0835,2.0858,2.0871,2.0847,2.0849,2.0919,2.092,2.0922,2.0937,0,0,0,0,0,0,2.0751,2.0757,2.0768,2.0781,2.0787,2.0821,2.0807,2.0808,2.0818,2.0816,2.0829,2.083,2.0831,2.0856,2.086,2.0873,2.085,2.0918,2.092,2.0921,2.0935,2.0938,2.0941,0,0,0,0,0,2.0749,2.077,2.0769,2.0774,2.0801,2.0822,2.0826,2.0827,2.0819,2.0829,2.0835,2.0829,2.087,2.0858,2.0863,2.0877,2.0917,2.0919,2.0921,2.0933,2.0938,2.0941,0,0,0,0,0,0,2.0757,2.0772,2.077,2.0797,2.0809,2.0821,2.0834,2.0832,2.0845,2.0843,2.0844,2.0847,2.0871,2.0876,2.0863,2.0904,2.0892,2.0895,2.09,2.0904,2.0907,2.0904,2.0851,0,0,0,0,0,2.0762,2.0779,2.0791,2.0813,2.082,2.0826,2.0835,2.0836,2.0847,2.0852,2.0859,2.087,2.0885,2.0895,2.0909,2.0936,2.0939,2.0948,2.0952,2.0954,2.0956,2.0971,2.0976,2.0929,2.0929,2.0929,0,0,2.0773,2.0783,2.0793,2.0815,2.0824,2.0841,2.083,2.0848,2.086,2.0854,2.0877,2.0883,2.0895,2.092,2.0932,2.0926,2.097,2.0957,2.0959,2.096,2.0974,2.0978,2.0982,2.0931,2.093,2.093,0,0,2.08,2.081,2.0829,2.0839,2.0854,2.0858,2.0863,2.0876,2.088,2.0903,2.09,2.0914,2.094,2.0949,2.0957,2.099,2.0985,2.0995,2.101,2.1025,2.1029,2.1032,2.1043,2.1047,2.0997,2.0997,2.0997,0,2.081,2.0836,2.084,2.0859,2.0868,2.0866,2.0886,2.0895,2.0913,2.0919,2.0913,2.0946,2.0954,2.0982,2.099,2.0997,2.1002,2.0992,2.1028,2.1031,2.1034,2.1045,2.1049,2.0998,2.0998,2.0998,2.0998,0,2.0848,2.0867,2.0881,2.09,2.0911,2.093,2.0937,2.0948,2.0948,2.0953,2.0977,2.0987,2.1003,2.101,2.101,2.1038,2.1034,2.1028,2.1015,2.104,2.105,2.1054,2.1,2.0999,2.0999,2.0999,0,0,2.0879,2.0902,2.0907,2.0916,2.0932,2.0946,2.0965,2.0983,2.0992,2.1005,2.1021,2.1044,2.1039,2.1048,2.105,2.1062,2.1088,2.1055,2.1055,2.106,2.1119,2.1122,2.1127,2.1085,2.1086,2.1087,2.1117,0,2.0907,2.0942,2.0947,2.0978,2.0994,2.0993,2.101,2.1022,2.1028,2.1042,2.1049,2.1065,2.1057,2.1063,2.1076,2.1082,2.1099,2.108,2.1099,2.11,2.1095,2.1132,2.1136,2.1164,2.1121,2.1122,2.1122,0,2.0944,2.096,2.0993,2.1008,2.1015,2.103,2.1047,2.1062,2.1075,2.1079,2.109,2.109,2.1109,2.1097,2.1124,2.1111,2.112,2.1124,2.1125,2.1126,2.1112,2.1133,2.1173,2.1177,2.1129,2.1128,2.1128,0,2.0963,2.0992,2.1016,2.1023,2.1042,2.1053,2.1061,2.1074,2.1085,2.1099,2.1106,2.1123,2.1131,2.1144,2.1148,2.1139,2.1175,2.1163,2.1177,2.1177,2.1184,2.1183,2.1225,2.1191,2.1191,2.1191,2.1191,0,2.0993,2.1013,2.1025,2.1039,2.1061,2.1067,2.1088,2.1096,2.1108,2.1123,2.1123,2.1138,2.1143,2.1158,2.1162,2.1183,2.1188,2.119,2.1191,2.119,2.1189,2.1194,2.1192,2.1192,2.1192,2.1192,2.1191,0,2.1017,2.1026,2.1051,2.1068,2.1072,2.1088,2.1102,2.1115,2.1122,2.1142,2.1146,2.1156,2.1174,2.118,2.1202,2.1204,2.1229,2.1228,2.1225,2.1224,2.1238,2.1237,2.1284,2.129,2.1253,2.1254,2.1254,0,2.1035,2.1051,2.1069,2.108,2.1089,2.1107,2.1118,2.1125,2.1136,2.1154,2.1165,2.1183,2.1198,2.1227,2.1235,2.1252,2.1251,2.1266,2.1253,2.1252,2.125,2.1249,2.125,2.1268,2.1269,2.1269,2.1269,0,2.1066,2.107,2.1087,2.1106,2.1119,2.1134,2.1148,2.1157,2.1165,2.1178,2.1198,2.1209,2.1232,2.125,2.1267,2.1275,2.1273,2.1274,2.1278,2.1276,2.1273,2.1274,2.123,2.1272,2.1272,2.1272,2.1271,2.1271,2.1087,2.1101,2.1117,2.1136,2.1148,2.1161,2.1175,2.1184,2.1201,2.122,2.1223,2.1244,2.1258,2.1281,2.129,2.1305,2.1301,2.1307,2.1308,2.1309,2.131,2.1272,2.1308,2.1308,2.1308,2.1308,2.1308,0,2.1118,2.1128,2.1146,2.1166,2.1181,2.1181,2.1197,2.1209,2.1227,2.1241,2.1256,2.1278,2.1296,2.1307,2.1324,2.1335,2.1335,2.1339,2.1338,2.134,2.1313,2.1308,2.1339,2.1339,2.1339,2.1339,2.1339,2.1339,2.1135,2.1159,2.1165,2.1195,2.1205,2.1226,2.1235,2.1248,2.1259,2.1284,2.1299,2.1307,2.1319,2.1338,2.1354,2.1357,2.1363,2.1368,2.137,2.1345,2.1341,2.1338,2.1333,2.1369,2.1369,2.1395,2.1395,2.1395]}]]